Weather Roundup
Issued by NWS

Home | Current Version | Previous Version | Text Only | Print | Product List | Glossary On
Versions: 1 2 3 4 5 6 7 8 9 10 11 12 13 14 15 16 17 18 19 20 21 22 23 24 25 26 27 28 29 30 31 32 33 34 35 36 37 38 39 40 41 42 43 44 45 46 47 48 49 50
000
NZUS93 KARX 101210
HRRWXR

CURRENT HOURLY OBSERVATIONS ACROSS
MUCH OF THE UPPER MISSISSIPPI VALLEY
NATIONAL WEATHER SERVICE LA CROSSE WI
700 AM CDT THU JUL 10 2014


...SOUTHEAST MINNESOTA...


CITY           SKY/WX    TMP DP  RH WIND       PRES   REMARKS
ROCHESTER      PTSUNNY   59  56  89 SE8       30.09R
ROCHESTER/MAYO PTSUNNY   59  54  84 CALM      30.08R
WINONA         FAIR      61  59  94 S3        30.08R
AUSTIN         FAIR      59  57  94 SE3       30.07R
ALBERT LEA     FAIR      61  59  94 CALM      30.07R FOG
DODGE CENTER   PTSUNNY   61  57  88 CALM      30.07S
PRESTON        FAIR      60  57  89 S6        30.09S
OWATONNA       FAIR      61  57  88 CALM      30.06S
FARIBAULT      FAIR      64  55  72 S5        30.06R
$$

...ELSEWHERE IN MINNESOTA...


CITY           SKY/WX    TMP DP  RH WIND       PRES   REMARKS
MINNEAPOLIS    FAIR      63  58  83 SE5       30.05R
INTNL FALLS    SUNNY     52  50  93 CALM      30.01R
DULUTH         MOSUNNY   59  51  75 SE3       30.07R
RED WING       FAIR      63  61  94 SE3       30.05S
REDWOOD FALLS  FAIR      61  57  87 SE5       30.02R
MANKATO        FAIR      61  54  77 SE6       30.05R
WORTHINGTON    FAIR      63  59  88 S5        30.06R
FAIRMONT       FAIR      61  55  82 S7        30.06R
$$

...SOUTHWEST WISCONSIN...


CITY           SKY/WX    TMP DP  RH WIND       PRES   REMARKS
LA CROSSE      FAIR      61  54  77 E8        30.09R
PRAIRIE DU CHI FAIR      60  57  89 E3        30.11R
BOSCOBEL       CLOUDY    59  56  89 CALM      30.13R
LONE ROCK      FAIR      60  55  83 CALM      30.13R
PLATTEVILLE    FAIR      62  56  80 E7        30.13R
FORT MC COY    PTSUNNY   54  52  90 CALM      30.12R
CAMP DOUGLAS   SUNNY     54  45  71 E2        30.12R
VIROQUA        FAIR      60  55  83 SE7       30.12R
WIS DELLS      FAIR      58  54  87 CALM      30.13S
$$

...ELSEWHERE IN WISCONSIN...


CITY           SKY/WX    TMP DP  RH WIND       PRES   REMARKS
MILWAUKEE      FAIR      62  56  80 CALM      30.15R
MADISON        FAIR      59  54  83 CALM      30.13S
GREEN BAY      FAIR      57  55  93 CALM      30.15R
EAU CLAIRE     FAIR      59  56  89 CALM      30.08S
BLACK RVR FLS  FAIR      53  53 100 CALM      30.11S
MEDFORD        FAIR      55  51  86 CALM      30.13S
WAUSAU         FAIR      53  50  89 E5        30.13R
WIS RAPIDS     FAIR      57  53  86 CALM      30.14R
MARSHFIELD     FAIR      57  53  86 SE3       30.13R
RICE LAKE      FAIR      57  53  85 CALM      30.10S
$$

...NORTHEAST IOWA...


CITY           SKY/WX    TMP DP  RH WIND       PRES   REMARKS
WATERLOO       CLOUDY    65  58  78 S3        30.09R
DUBUQUE        FAIR      62  58  86 SE8       30.12R
DECORAH          N/A    N/A N/A N/A MISG        N/A
MASON CITY     FAIR      64  60  87 S7        30.09R
CHARLES CITY   FAIR      61  59  94 SE7       30.09R
OELWEIN        FAIR      61  61 100 SE5       30.11R
$$

...ELSEWHERE IN IOWA...


CITY           SKY/WX    TMP DP  RH WIND       PRES   REMARKS
DES MOINES     FAIR      65  57  75 S9        30.08R
IOWA CITY      FAIR      63  60  90 CALM      30.12R
FORT DODGE     FAIR      61  57  88 CALM      30.08R
MARSHALLTOWN   FAIR      61  58  90 S5        30.09R
CEDAR RAPIDS   FAIR      60  57  89 CALM      30.10R
$$

...NORTHERN ILLINOIS...


CITY           SKY/WX    TMP DP  RH WIND       PRES   REMARKS
CHICAGO-OHARE  FAIR      65  56  72 CALM      30.14R
DUPAGE         FAIR      62  56  80 CALM      30.13S
CHICAGO-MIDWAY FAIR      67  61  81 CALM      30.13R
MOLINE         FAIR      61  57  87 E3        30.11R
ROCKFORD       FAIR      59  55  87 CALM      30.15F
STERLING       FAIR      61  55  82 E3        30.14R
PEORIA         FAIR      65  58  78 NE3       30.13R
$$

NOTE: "FAIR" INDICATES FEW OR NO CLOUDS BELOW 12,000 FEET WITH NO
SIGNIFICANT WEATHER AND/OR OBSTRUCTIONS TO VISIBILITY. WIND
SPEEDS ARE IN MILES-PER-HOUR.



USA.gov is the U.S. government's official web portal to all federal, state and local government web resources and services.